Location: Bjelajci
(45.0103°N, 16.1758°E)
Time: 09:53:55
(UTC+00:00)

Cosmos 1184 Rocket - Pass Details

Date: 14 July 2020
Orbit: 408 x 421 km, 81.2° (Epoch: 08 August)

Event Time Altitude Azimuth Distance (km) Brightness Sun altitude
Exits shadow 00:49:55 22° 288° (WNW) 969 4.5 -18.9°
Maximum altitude 00:49:55 22° 288° (WNW) 969 4.5 -18.9°
Drops below altitude 10° 00:52:33 10° 342° (NNW) 1,502 6.2 -18.7°
Sets 00:54:55 0° 358° (N) 2,375 7.6 -18.5°
